Location: West Chester
(39.9610°N, 75.6060°W)
Time: 19:58:17
(UTC-04:00)

ARIANE 6 FM1 Upper Stage - Pass Details

Date: 28 September 2024
Orbit: 563 x 594 km, 62.0° (Epoch: 11 October)

Event Time Altitude Azimuth Distance (km) Brightness Sun altitude
Rises 19:36:11 0° 255° (WSW) 2,775 7.7 -9.9°
Reaches altitude 10° 19:38:56 10° 273° (W) 1,887 7.0 -10.5°
Maximum altitude 19:42:02 19° 320° (NW) 1,396 5.3 -11.0°
Drops below altitude 10° 19:45:10 10° 7° (N) 1,910 5.4 -11.6°
Sets 19:47:59 0° 25° (NNE) 2,821 6.1 -12.2°
